Date String (YYYY-MM-DD hh:mm:ss) UTC,Instrument flags,Ambient pressure (hPa),Sample flow (lpm),Bypass flow (lpm),Sample temperature (°C),Ambient temperature (°C),ASC tube jacket temperature (°C),LED temperature (°C),Box temperature (°C),Sample RH (%),Span deviation,Mass concentration (μg/m³),Mass concentration (μg/m³),Mass concentration (μg/m³)
DateTimeUTC,F1_M11,P_M11,Q1_M11,Q2_M11,T1_M11,T2_M11,T3_M11,T4_M11,T5_M11,U1_M11,ZSPAN_M11,X0_M11,X2_M11,X1_M11
2022-03-07 23:00:00,,0826.1,4.99,0.00,22.2,22.5,00.0,31.0,24.2,07.8,-000.0,0007.91,0005.90,0005.77
2022-03-07 23:01:00,,0826.0,5.01,0.00,22.2,22.3,00.0,31.1,24.1,07.7,-000.2,0007.89,0005.88,0005.74
2022-03-07 23:02:00,,0826.0,5.00,0.00,22.3,22.2,00.0,31.1,24.1,07.8,0000.5,0008.01,0005.86,0005.73
2022-03-07 23:03:00,,0826.0,5.00,0.00,22.3,22.1,00.0,31.1,24.1,07.8,0000.5,0008.05,0005.87,0005.73
2022-03-07 23:04:00,,0826.0,5.00,0.00,22.3,22.0,00.0,31.1,24.1,08.1,0000.4,0008.12,0005.90,0005.74
2022-03-07 23:05:00,,0826.0,5.00,0.00,22.3,22.0,00.0,31.2,24.1,08.0,0000.7,0008.09,0005.91,0005.75
2022-03-07 23:06:00,,0826.0,5.00,0.00,22.3,21.9,00.0,31.2,24.1,07.8,0000.4,0008.10,0005.92,0005.76
2022-03-07 23:07:00,,0826.0,5.00,0.00,22.3,21.8,00.0,31.2,24.1,08.0,0000.0,0008.13,0005.94,0005.76
2022-03-07 23:08:00,,0826.0,5.00,0.00,22.3,21.7,00.0,31.2,24.0,07.8,0000.1,0008.18,0005.96,0005.77
2022-03-07 23:09:00,,0826.0,5.00,0.00,22.3,21.7,00.0,31.2,24.0,07.7,0000.3,0008.22,0005.98,0005.78
2022-03-07 23:10:00,,0826.0,5.01,0.00,22.2,21.7,00.0,31.2,24.0,07.7,0000.0,0008.51,0006.02,0005.82
2022-03-07 23:11:00,,0826.0,5.01,0.00,22.2,21.7,00.0,31.2,24.0,07.7,0000.0,0008.79,0006.03,0005.83
2022-03-07 23:12:00,,0826.0,4.99,0.00,22.2,21.7,00.0,31.2,24.0,07.7,0000.0,0008.87,0006.07,0005.85
2022-03-07 23:13:00,,0825.9,4.99,0.00,22.2,21.6,00.0,31.2,24.0,07.8,0000.3,0008.77,0006.10,0005.88
2022-03-07 23:14:00,,0825.9,5.01,0.00,22.2,21.7,00.0,31.2,24.0,07.7,0000.5,0008.93,0006.17,0005.92
2022-03-07 23:15:00,,0825.9,5.00,0.00,22.2,21.7,00.0,31.2,24.0,07.8,0001.7,0009.04,0006.21,0005.96
2022-03-07 23:16:00,,0826.0,4.99,0.00,22.2,21.7,00.0,31.2,23.9,07.7,0001.9,0009.09,0006.22,0005.97
2022-03-07 23:17:00,,0826.0,5.00,0.00,22.2,21.6,00.0,31.2,23.9,07.7,0001.8,0009.10,0006.22,0005.95
2022-03-07 23:18:00,,0826.0,5.00,0.00,22.2,21.6,00.0,31.2,23.9,07.7,0001.6,0009.08,0006.20,0005.93
2022-03-07 23:19:00,,0826.0,5.00,0.00,22.2,21.6,00.0,31.2,23.9,07.8,0001.0,0009.04,0006.17,0005.91
2022-03-07 23:20:00,,0826.0,5.00,0.00,22.2,21.5,00.0,31.2,23.9,07.8,0001.0,0009.06,0006.15,0005.89
2022-03-07 23:21:00,,0826.0,5.00,0.00,22.1,21.4,00.0,31.2,23.9,07.7,0000.9,0008.81,0006.13,0005.85
2022-03-07 23:22:00,,0826.0,4.99,0.00,22.1,21.3,00.0,31.2,23.8,07.7,0000.3,0008.68,0006.13,0005.83
2022-03-07 23:23:00,,0826.0,5.00,0.00,22.1,21.3,00.0,31.2,23.8,07.8,0000.0,0008.68,0006.10,0005.82
2022-03-07 23:24:00,,0826.0,5.01,0.00,22.1,21.3,00.0,31.1,23.7,07.7,0000.0,0008.64,0006.06,0005.79
2022-03-07 23:25:00,,0826.0,5.00,0.00,22.1,21.3,00.0,31.1,23.8,07.8,0000.0,0008.43,0005.99,0005.73
2022-03-07 23:26:00,,0826.0,5.00,0.00,22.1,21.4,00.0,31.1,23.7,07.8,0000.0,0008.25,0005.93,0005.69
2022-03-07 23:27:00,,0826.0,5.00,0.00,22.1,21.4,00.0,31.1,23.8,07.7,0000.0,0008.22,0005.88,0005.65
2022-03-07 23:28:00,,0826.0,5.00,0.00,22.1,21.5,00.0,31.1,23.8,07.7,0000.0,0008.21,0005.87,0005.64
2022-03-07 23:29:00,,0826.0,4.99,0.00,22.1,21.4,00.0,31.1,23.9,07.7,-000.2,0008.22,0005.86,0005.63
2022-03-07 23:30:00,,0826.0,5.01,0.00,22.1,21.5,00.0,31.1,23.9,07.7,-000.1,0008.21,0005.86,0005.62
2022-03-07 23:31:00,,0825.9,4.99,0.00,22.1,21.5,00.0,31.1,23.9,07.7,0000.1,0008.89,0005.85,0005.62
2022-03-07 23:32:00,,0825.9,4.99,0.00,22.1,21.5,00.0,31.1,23.9,07.7,0000.1,0008.82,0005.82,0005.61
2022-03-07 23:33:00,,0825.9,5.00,0.00,22.1,21.6,00.0,31.1,24.0,07.8,0000.4,0008.99,0005.80,0005.61
2022-03-07 23:34:00,,0825.9,5.00,0.00,22.2,21.6,00.0,31.1,24.0,08.0,0000.8,0008.90,0005.79,0005.60
2022-03-07 23:35:00,,0825.9,5.00,0.00,22.2,21.6,00.0,31.1,24.0,08.0,0000.9,0008.97,0005.80,0005.59
2022-03-07 23:36:00,,0825.9,5.00,0.00,22.2,21.6,00.0,31.1,24.0,07.9,0002.2,0009.00,0005.81,0005.60
2022-03-07 23:37:00,,0825.9,5.00,0.00,22.2,21.7,00.0,31.1,24.0,07.9,0002.5,0009.04,0005.82,0005.60
2022-03-07 23:38:00,,0825.9,5.00,0.00,22.2,21.7,00.0,31.1,24.0,07.9,0002.8,0009.09,0005.86,0005.63
2022-03-07 23:39:00,,0825.9,5.00,0.00,22.2,21.7,00.0,31.2,24.0,08.1,0002.5,0009.05,0005.86,0005.64
2022-03-07 23:40:00,,0825.9,5.00,0.00,22.2,21.7,00.0,31.2,24.0,07.9,0002.4,0009.07,0005.87,0005.66
2022-03-07 23:41:00,,0825.9,5.01,0.00,22.2,21.5,00.0,31.2,23.9,07.8,0002.5,0009.09,0005.88,0005.68
2022-03-07 23:42:00,,0825.9,5.01,0.00,22.2,21.4,00.0,31.1,23.9,07.8,0001.9,0008.63,0005.91,0005.69
2022-03-07 23:43:00,,0825.9,5.00,0.00,22.1,21.4,00.0,31.1,23.9,07.8,0001.0,0008.51,0005.96,0005.72
2022-03-07 23:44:00,,0825.9,5.01,0.00,22.1,21.4,00.0,31.1,23.8,07.8,0000.4,0008.27,0005.98,0005.74
2022-03-07 23:45:00,,0825.9,5.00,0.00,22.1,21.4,00.0,31.1,23.9,07.8,0000.5,0008.19,0005.99,0005.76
2022-03-07 23:46:00,,0825.9,4.99,0.00,22.1,21.4,00.0,31.1,23.9,07.9,0000.7,0008.16,0005.99,0005.77
2022-03-07 23:47:00,,0826.0,4.99,0.00,22.1,21.4,00.0,31.1,23.8,07.9,0000.3,0008.13,0006.00,0005.79
2022-03-07 23:48:00,,0826.0,4.99,0.00,22.1,21.4,00.0,31.1,23.8,07.8,-000.2,0008.29,0006.03,0005.83
2022-03-07 23:49:00,,0826.0,5.01,0.00,22.1,21.4,00.0,31.1,23.9,07.9,-000.5,0009.14,0006.08,0005.86
2022-03-07 23:50:00,,0826.0,5.01,0.00,22.1,21.4,00.0,31.1,23.9,08.1,0000.0,0009.46,0006.12,0005.91
2022-03-07 23:51:00,,0826.0,5.00,0.00,22.1,21.4,00.0,31.1,23.9,08.2,0000.5,0009.65,0006.19,0005.97
2022-03-07 23:52:00,,0826.0,5.00,0.00,22.1,21.4,00.0,31.1,23.9,07.9,0000.8,0009.65,0006.23,0006.01
2022-03-07 23:53:00,,0825.9,5.00,0.00,22.1,21.4,00.0,31.1,23.9,07.8,0001.4,0009.70,0006.28,0006.06
2022-03-07 23:54:00,,0825.9,5.00,0.00,22.1,21.5,00.0,31.1,23.9,07.8,0001.6,0009.66,0006.30,0006.10
2022-03-07 23:55:00,,0825.9,5.00,0.00,22.1,21.5,00.0,31.1,23.9,07.9,0002.4,0009.71,0006.34,0006.14
2022-03-07 23:56:00,,0825.8,4.99,0.00,22.2,21.6,00.0,31.1,24.0,07.9,0002.1,0009.79,0006.40,0006.19
2022-03-07 23:57:00,,0825.9,5.00,0.00,22.2,21.6,00.0,31.1,24.0,08.0,0001.8,0009.79,0006.43,0006.23
2022-03-07 23:58:00,,0825.9,5.00,0.00,22.2,21.6,00.0,31.1,23.9,08.1,0001.3,0009.83,0006.46,0006.25
2022-03-07 23:59:00,,0825.9,5.00,0.00,22.1,21.5,00.0,31.1,23.9,08.1,0001.8,0009.97,0006.48,0006.26
